Date,TemperatureHighF,TemperatureAvgF,TemperatureLowF,DewpointHighF,DewpointAvgF,DewpointLowF,HumidityHigh,HumidityAvg,HumidityLow,PressureMaxIn,PressureMinIn,WindSpeedMaxMPH,WindSpeedAvgMPH,GustSpeedMaxMPH,PrecipitationSumIn
2013-10-1,73,63,55,61,56,52,93,81,61,30.06,29.96,5,1,14,0.00
2013-10-2,74,64,58,64,58,54,91,81,61,30.09,29.97,9,2,18,0.00
2013-10-3,71,61,49,56,52,44,98,76,41,30.17,30.06,3,0,6,0.01
2013-10-4,75,66,62,68,64,55,98,91,74,30.07,30.00,5,0,9,0.09
2013-10-5,73,65,62,68,64,62,100,95,82,30.10,30.03,5,1,11,0.13
2013-10-6,80,68,62,70,66,62,100,91,65,30.04,29.87,13,4,23,0.03
2013-10-7,70,61,51,65,57,44,98,86,66,30.03,29.66,16,10,29,0.90
2013-10-8,61,52,47,50,46,44,94,81,56,30.41,30.03,6,2,15,0.00
2013-10-9,66,54,41,46,43,37,94,69,35,30.48,30.35,5,0,9,0.00
2013-10-10,65,55,42,52,45,38,90,72,37,30.36,30.20,2,0,5,0.00
2013-10-11,69,58,51,53,47,40,89,68,42,30.19,30.12,4,0,8,0.00
2013-10-12,72,60,49,53,45,36,85,58,30,30.28,30.15,8,2,16,0.00
2013-10-13,57,55,53,53,52,50,90,88,86,30.31,30.28,7,2,13,0.00
2013-10-22,53,48,41,44,39,33,94,74,54,29.88,29.78,9,4,0,0.05
2013-10-23,46,40,35,38,35,33,95,83,67,29.86,29.71,5,2,0,0.10
2013-10-24,45,38,32,36,32,29,95,81,55,30.05,29.83,11,6,0,0.05
2013-10-25,45,39,34,38,36,33,97,89,74,30.24,30.06,6,3,0,0.17
2013-10-26,45,40,36,35,32,29,90,72,57,30.22,29.90,10,6,0,0.04
2013-10-27,46,42,39,37,35,32,86,77,66,30.14,29.89,9,5,0,0.00
2013-10-28,48,41,33,40,34,28,84,76,64,30.42,30.13,7,4,6,0.00
2013-10-29,46,37,28,31,28,24,88,69,48,30.53,30.38,4,0,9,0.00
2013-10-30,58,46,38,42,37,29,90,73,52,30.38,30.21,3,0,7,0.00
2013-10-31,60,53,45,57,51,40,97,93,80,30.21,29.60,15,8,29,0.49